Regional Weather Roundup
Issued by NWS

Home | Current Version | Previous Version | Graphics & Text | Print | Product List | Glossary On
Versions: 1 2 3 4 5 6 7 8 9 10 11 12 13 14 15 16 17 18 19 20 21 22 23 24 25 26 27 28 29 30 31 32 33 34 35 36 37 38 39 40 41 42 43 44 45 46 47 48 49 50
000
ASUS45 KBOI 020510
RWRID

IDAHO REGIONAL WEATHER ROUNDUP
NATIONAL WEATHER SERVICE BOISE ID
1100 PM MDT MON JUN 01 2015

NOTE: "FAIR" INDICATES FEW OR NO CLOUDS BELOW 12000 FEET
WITH NO SIGNIFICANT WEATHER AND/OR OBSTRUCTIONS TO VISIBILITY

IDZ012-014-020600-
SOUTHWEST IDAHO


CITY           SKY/WX    TMP DP  RH WIND       PRES   REMARKS
BOISE          PTCLDY    68  45  43 CALM      29.83R
CALDWELL       PTCLDY    66  43  42 W6        29.83R
MOUNTAIN HOME  PTCLDY    69  46  43 N3        29.83R
$$

IDZ016-017-020600-
SOUTHCENTRAL IDAHO


CITY           SKY/WX    TMP DP  RH WIND       PRES   REMARKS
BURLEY         CLEAR     55  49  80 SE3       29.88S
JEROME         CLEAR     61  44  53 NE12      29.88S
TWIN FALLS     CLEAR     56  48  74 S10       29.86R
$$

IDZ019>023-020600-
SOUTHEAST IDAHO


CITY           SKY/WX    TMP DP  RH WIND       PRES   REMARKS
IDAHO FALLS    PTCLDY    48  45  89 N8        29.95S
POCATELLO      CLEAR     53  52  96 N5        29.93S
REXBURG        PTCLDY    52  45  77 N5        29.96F
$$

IDZ006-010-011-018-031-032-020600-
CENTRAL IDAHO MOUNTAINS


CITY           SKY/WX    TMP DP  RH WIND       PRES   REMARKS
MCCALL         CLOUDY    57  42  57 SW5       29.92R
HAILEY         PTCLDY    52  46  82 W8        29.97S
STANLEY          N/A     48  42  80 S13       30.07R
SALMON           N/A     54  46  76 CALM      29.89S
CHALLIS        MOCLDY    52  45  77 NW7       29.96R
$$

IDZ002-004-006-007-026-020600-
NORTHERN IDAHO


CITY           SKY/WX    TMP DP  RH WIND       PRES   REMARKS
LEWISTON       CLOUDY    60  55  83 E8        29.83R
LOWELL           N/A     57  55  93 CALM      29.90R
COEUR D`ALENE  CLOUDY    59  55  88 S10       29.88S
MULLAN PASS    RAIN      45  44  97 SW6       29.99R
$$



USA.gov is the U.S. government's official web portal to all federal, state and local government web resources and services.